Overview Statistics Trail Chart Weather Telemetry Raw packets
 

This is the latest recevied weather packets stored in our database for station/object F8KHU-13. If no packets are shown the sender has not sent any weather packets the latest 10 day(s).

<< 57 58 59 60 61 62 >>
Time Temp. Humidity Pressure Rain* Wind** Luminosity Snow
1787919042 18.89° C 28% 1009 hPa 0 mm - 0 W/m² -
1787919022 18.89° C 28% 1009.1 hPa 0 mm - 0 W/m² -
1787918163 18.89° C 29% 1008.8 hPa 0 mm - 0 W/m² -
1787918142 18.89° C 29% 1008.8 hPa 0 mm - 0 W/m² -
1787917263 18.89° C 29% 1008.8 hPa 0 mm - 0 W/m² -
1787917243 17.78° C 30% 1008.8 hPa 0 mm - 0 W/m² -
1787917223 17.78° C 30% 1008.8 hPa 0 mm - 0 W/m² -
1787916363 17.78° C 32% 1009.1 hPa 0 mm - 0 W/m² -
1787915463 16.67° C 32% 1009 hPa 0 mm - 0 W/m² -
1787915443 16.67° C 32% 1009 hPa 0 mm - 0 W/m² -
1787915423 16.67° C 32% 1009 hPa 0 mm - 0 W/m² -
1787914563 16.67° C 32% 1009 hPa 0 mm - 0 W/m² -
1787914543 16.67° C 32% 1009 hPa 0 mm - 0 W/m² -
1787913698 16.67° C 32% 1008.6 hPa 0 mm - 0 W/m² -
1787913698 16.67° C 32% 1008.7 hPa 0 mm - 0 W/m² -
1787913663 16.67° C 32% 1008.6 hPa 0 mm - 0 W/m² -
1787913643 16.67° C 32% 1008.7 hPa 0 mm - 0 W/m² -
1787913626 16.67° C 32% 1008.7 hPa 0 mm - 0 W/m² -
1787912744 16.11° C 43% 1008.7 hPa 0 mm - 0 W/m² -
1787907365 18.89° C 31% 1008.5 hPa 0 mm - 0 W/m² -
1787907325 18.89° C 31% 1008.5 hPa 0 mm - 0 W/m² -
1787906465 18.89° C 31% 1008.8 hPa 0 mm - 0 W/m² -
1787906445 18.89° C 31% 1008.8 hPa 0 mm - 0 W/m² -
1787906425 18.89° C 31% 1008.7 hPa 0 mm - 0 W/m² -
1787905565 18.89° C 35% 1008.5 hPa 0 mm - 0 W/m² -

* Rain latest hour (hover to see other rain measurements)
** Current wind speed in m/s (hover to see current wind gust speed)